Home   Weather   Brighton   Past weeks
Flag for United Kingdom

Past Weather in Brighton, England, United Kingdom — Yesterday and Last 2 Weeks

Now
57 °F

Passing clouds.


Feels Like: 54 °F
Forecast: 56 / 53 °F
Wind: 15 mph from Southwest

Location: Shoreham Airport

Current Time: Oct 17, 2019 at 10:38:37 am

Latest Report: Oct 17, 2019 at 9:50 am


Visibility: N/A

Pressure: 29.74 "Hg

Humidity: 82%

Dew Point: 52 °F

Location of BrightonLocation

Past Weather in Brighton — Graph

°F

Brighton Temperature Yesterday

Maximum temperature yesterday: 61 °F (at 8:50 am)
Minimum temperature yesterday: 54 °F (at 6:20 pm)
Average temperature yesterday: 57 °F

High & Low Weather Summary for the Past Weeks

 TemperatureHumidityPressure
High64 °F (Oct 13, 10:50 am)100% (Oct 3, 8:50 am)30.15 "Hg (Oct 3, 8:50 am)
Low41 °F (Oct 3, 8:20 am)48% (Oct 2, 1:50 pm)29.50 "Hg (Oct 14, 6:50 pm)
Average58 °F81%29.80 "Hg
* Reported Oct 2 9:20 am — Oct 17 9:20 am, Brighton. Weather by CustomWeather, © 2019

Note: Actual official high and low records may vary slightly from our data, if they occured in-between our weather recording intervals... More about our weather records

Advertising

Brighton Weather History for the Previous 24 Hours

Scroll right to see more
 ConditionsComfort  
Time TempWeatherWind HumidityBarometerVisibility
9:20 am
Thu, Oct 17
55 °FRain showers. Passing clouds.6 mph82%29.74 "HgN/A
7:50 pm
Wed, Oct 16
54 °FClear.2 mph88%29.68 "Hg10 mi
7:20 pm54 °FClear.2 mph88%29.65 "Hg10 mi
6:50 pm54 °FClear.3 mph88%29.65 "Hg10 mi
6:20 pm54 °FPassing clouds.5 mph77%29.65 "HgN/A
5:50 pm55 °FScattered clouds.5 mph82%29.65 "HgN/A
5:20 pm55 °FScattered clouds.5 mph82%29.65 "HgN/A
4:50 pm55 °FScattered clouds.8 mph77%29.65 "HgN/A
4:20 pm55 °FScattered clouds.8 mph72%29.65 "HgN/A
3:50 pm55 °FScattered clouds.6 mph82%29.65 "HgN/A
3:20 pm55 °FScattered clouds.6 mph82%29.65 "HgN/A
2:50 pm55 °FScattered clouds.7 mph82%29.65 "HgN/A
2:20 pm55 °FSprinkles. Scattered clouds.7 mph88%29.65 "Hg4 mi
1:50 pm57 °FSprinkles. Scattered clouds.7 mph82%29.62 "HgN/A
1:20 pm57 °FSprinkles. Scattered clouds.10 mph82%29.62 "HgN/A
12:50 pm57 °FScattered clouds.12 mph77%29.62 "HgN/A
12:20 pm57 °FPassing clouds.13 mph82%29.62 "HgN/A
11:50 am57 °FPassing clouds.13 mph82%29.62 "HgN/A
11:20 am57 °FScattered clouds.14 mph88%29.62 "HgN/A
10:50 am59 °FPassing clouds.14 mph88%29.59 "HgN/A
10:20 am61 °FScattered clouds.14 mph88%29.59 "Hg5 mi
Weather by CustomWeather, © 2019

See weather overview